Skip Page Navigation
NASA JPL Caltech
NASA Logo - Jet Propulsion Laboratory + View the NASA Portal
+ Center for Near-Earth Object Studies
JPL Home Earth Solar System Stars & Galaxies Technology
JPL Solar System Dynamics
BODIES ORBITS EPHEMERIDES TOOLS PHYSICAL DATA DISCOVERY FAQ SITE MAP
IMPORTANT: The SSD Announcement email list is now available. Major changes are coming in the near future, including possible hostname and/or URL changes. To be notified of such changes, subscribe to this email list.

Please visit this page for more details.


JPL Small-Body Database Browser
Search: [ help ]  
344568 (2002 XX50)
Classification: Main-belt Asteroid          SPK-ID: 2344568
Ephemeris | Orbit Diagram | Orbital Elements | Mission Design | Physical Parameters | Discovery Circumstances ]

[ show orbit diagram ]
Orbital Elements at Epoch 2458600.5 (2019-Apr-27.0) TDB
Reference: JPL 9 (heliocentric ecliptic J2000)
 Element Value Uncertainty (1-sigma)   Units 
e .1500524803324544 4.944e-08  
a 2.251175305372315 1.9733e-08 au
q 1.913380867138029 1.1259e-07 au
i 6.730908063528522 5.0648e-06 deg
node 85.50172924477737 6.8648e-05 deg
peri 331.7342411908903 7.5242e-05 deg
M 319.9895609944593 3.3967e-05 deg
tp 2458737.614447110680
(2019-Sep-11.11444711)
0.00011747 TDB
period 1233.708056865093
3.38
1.6221e-05
4.441e-08
d
yr
n .2918032333474226 3.8367e-09 deg/d
Q 2.588969743606601 2.2694e-08 au
  Orbit Determination Parameters
   # obs. used (total)      184  
   data-arc span      5227 days (14.31 yr)  
   first obs. used      2002-12-05  
   last obs. used      2017-03-28  
   planetary ephem.      DE431  
   SB-pert. ephem.      SB431-N16  
   condition code      0  
   norm. resid. RMS      .6297  
   source      ORB  
   producer      Otto Matic  
   solution date      2017-Apr-10 08:27:54  

Additional Information
 Earth MOID = .928456 au 
 Jupiter MOID = 2.72877 au 
 T_jup = 3.603 
[ show covariance matrix ]

Ephemeris | Orbit Diagram | Orbital Elements | Mission Design | Physical Parameters | Discovery Circumstances ]

Physical Parameter Table
Parameter Symbol Value Units Sigma Reference Notes
absolute magnitude H 17.4   n/a MPO345924  

344568 (2002 XX50)          Discovered 2002-Dec-05 by LINEAR at Socorro
Reference: 20121128/Numbers.arcLast Updated: 2012-12-03

Alternate Designations
 2002 XX50 = 2007 GE14 
Ephemeris | Orbit Diagram | Orbital Elements | Mission Design | Physical Parameters | Discovery Circumstances ]
ABOUT SSD CREDITS/AWARDS PRIVACY/COPYRIGHT GLOSSARY LINKS
FirstGov 2019-Dec-05 15:42 UT
(server date/time)  
NASA Home Page
Site Manager:   Ryan S. Park
Webmaster  Alan B. Chamberlin